Location: Borgo
(42.3939°N, 9.2791°E)
Time: 17:39:57
(UTC+00:00)

AQUARIUS - Pass Details

Date: 24 January 2021
Orbit: 650 x 652 km, 98.0° (Epoch: 02 March)

Event Time Altitude Azimuth Distance (km) Brightness Sun altitude
Rises 16:51:37 0° 166° (SSE) 2,958 7.6 -5.1°
Reaches altitude 10° 16:53:49 10° 166° (SSE) 2,052 6.8 -5.4°
Maximum altitude 16:58:19 89° 257° (WSW) 659 4.2 -6.2°
Drops below altitude 10° 17:02:50 10° 347° (NNW) 2,068 6.7 -7.0°
Sets 17:05:04 0° 348° (NNW) 2,984 7.5 -7.4°
